Theta_e
311 310 309 308 308 309 309 310 311 310 310 313 315 315 318 319 313 311 322 329 321 316 318 319 322 329 331 331 331 332 332 332 333 333 334 334 334 333 333 334 334 334 334 334 334 334 333 333 332 330 329 330 331 330 329 330 331 330 328 327 328 328 328 328 327 325 323 321 319 317 316 315 314 311 310 308 303 300 299 298 296 295 295 295 295 295 295
312 311 310 310 309 309 309 309 310 310 311 313 314 314 318 319 316 317 324 327 323 318 317 320 324 327 330 330 330 331 331 332 332 333 334 334 333 333 333 334 333 333 334 334 334 334 334 333 332 331 330 329 329 329 329 330 330 329 328 327 327 328 328 327 326 324 322 319 317 316 315 314 312 310 309 307 303 301 300 298 296 295 295 295 295 295 295
313 314 311 310 309 309 310 309 310 310 311 313 313 314 317 317 317 321 324 323 322 321 322 326 326 327 329 330 330 331 331 332 332 333 334 333 333 333 333 333 333 333 333 333 333 333 333 332 331 331 330 330 329 328 329 329 329 328 328 327 327 328 328 327 326 323 321 318 316 315 314 312 311 309 308 306 304 302 300 298 296 295 294 295 295 295 295
313 314 311 309 308 309 310 310 311 311 312 314 314 315 317 316 315 321 322 319 318 320 326 329 328 327 329 330 332 332 331 332 333 333 333 333 333 333 333 333 333 332 332 332 332 333 333 332 331 331 331 331 329 329 328 328 329 328 327 327 326 327 328 327 325 323 320 317 315 314 313 311 310 308 306 304 303 302 300 297 296 295 295 295 295 295 295
314 313 311 309 309 309 309 311 313 312 313 315 314 315 317 318 317 319 319 316 319 325 327 329 330 329 328 331 332 332 332 332 333 333 333 333 333 333 333 333 333 332 332 332 331 332 332 331 330 330 331 331 330 330 329 328 328 328 328 327 326 326 327 326 325 324 320 317 315 314 312 311 310 307 305 302 301 300 298 296 295 295 295 295 295 295 295
314 314 313 311 310 310 311 314 315 313 313 314 314 315 316 318 318 320 319 320 327 332 329 328 331 331 329 330 331 331 332 333 332 333 333 333 332 332 332 332 332 332 332 331 331 332 332 331 330 330 330 330 330 330 330 329 328 328 328 327 325 326 327 326 325 324 320 317 316 314 313 312 310 308 306 302 299 299 298 296 295 295 295 295 294 294 294
313 315 313 310 311 312 314 315 313 313 314 315 315 316 317 319 320 322 323 323 326 329 328 327 328 328 328 329 329 330 331 332 333 333 333 333 333 332 332 332 332 332 332 331 331 331 331 330 330 330 330 330 330 330 330 329 328 328 328 326 325 326 327 326 324 322 320 317 315 314 313 311 310 309 306 301 300 301 299 296 295 294 294 294 294 294 294
313 314 311 310 312 314 316 313 310 312 315 315 314 315 317 320 320 320 322 323 323 323 324 325 326 326 328 328 328 329 330 331 332 333 333 333 332 332 332 332 332 332 331 331 331 330 329 329 330 330 330 329 329 329 330 329 328 328 327 326 325 326 325 324 323 322 319 315 314 313 312 311 310 308 305 302 302 301 298 296 295 294 294 294 294 294 294
313 314 314 315 317 317 319 318 314 314 316 317 316 314 317 322 320 317 320 324 325 324 323 325 327 327 328 330 329 329 329 330 331 332 332 333 332 332 333 332 331 331 331 331 331 330 330 329 329 329 329 329 328 329 329 329 328 328 327 327 326 326 324 323 323 321 317 314 313 313 312 311 310 308 306 304 303 300 297 295 294 294 294 294 293 293 293
312 315 317 318 318 318 320 320 318 316 317 320 321 315 316 324 321 316 317 322 326 327 326 326 328 328 330 332 331 329 329 330 331 331 332 332 333 333 332 332 331 331 331 331 331 330 330 329 329 329 328 328 328 328 328 328 327 327 327 327 327 326 324 323 322 320 318 315 314 313 312 311 309 308 306 304 301 299 297 295 294 294 294 293 293 293 293
313 316 319 317 316 317 320 320 319 316 313 318 320 314 313 323 322 315 316 319 324 328 328 327 329 329 330 333 331 328 329 330 330 331 331 331 332 332 331 331 331 330 331 331 330 330 330 329 329 329 328 328 328 328 328 327 327 327 326 326 326 326 324 322 320 319 317 315 314 313 312 311 309 308 306 303 300 298 297 295 293 293 293 293 293 293 293
313 316 319 317 315 316 319 320 319 315 312 315 317 312 313 321 320 314 315 319 322 326 328 328 329 329 329 329 327 326 328 330 330 331 331 331 331 331 331 331 330 330 330 330 330 330 329 329 329 328 328 328 328 328 328 327 327 326 326 326 326 324 322 320 320 318 316 315 314 313 312 311 309 307 305 303 300 298 297 295 293 293 293 293 293 293 293
312 314 315 316 316 316 317 319 317 314 312 314 315 314 315 318 317 314 315 317 318 322 326 329 329 328 327 326 326 326 328 329 330 330 331 331 331 331 331 331 330 330 330 330 329 329 329 329 328 328 328 328 328 328 327 327 327 326 326 325 324 323 320 320 319 318 316 315 314 313 311 310 309 306 304 302 301 299 297 295 293 293 293 292 292 292 293
311 313 314 314 315 316 316 318 317 313 313 315 316 316 316 318 319 319 318 316 316 320 325 329 327 326 326 326 326 327 328 329 330 330 330 331 331 331 331 331 331 330 330 330 329 329 329 328 328 328 327 327 328 327 327 327 327 326 326 325 323 322 320 320 319 317 316 314 313 311 311 310 308 306 304 303 301 300 298 295 293 292 292 292 292 292 292
311 313 314 314 316 317 317 319 318 316 316 318 318 319 320 321 322 322 319 317 318 321 325 326 325 324 326 327 327 327 327 329 330 330 330 330 331 331 331 331 331 330 330 330 329 329 328 328 327 327 327 327 327 327 327 327 327 326 325 324 323 322 320 319 317 316 315 313 312 311 310 309 307 306 305 303 302 301 299 296 293 292 292 292 292 292 293
313 316 316 315 317 318 317 319 320 320 321 321 320 323 325 324 324 323 321 320 321 324 326 326 325 326 326 327 327 327 327 328 329 329 330 330 330 331 331 331 331 331 330 330 329 329 328 328 327 327 327 327 327 327 327 326 326 326 325 324 323 321 320 318 316 315 314 313 311 311 310 308 307 305 304 303 302 301 300 299 295 293 292 292 292 292 293
315 316 317 317 317 317 317 319 321 321 322 323 323 324 325 325 324 324 323 321 322 323 324 323 324 324 325 326 327 327 327 328 328 329 329 329 330 331 330 331 331 330 330 330 329 328 328 327 327 327 326 326 326 326 326 326 326 326 325 323 322 320 319 318 317 315 314 312 311 310 309 308 306 305 304 303 302 302 302 301 298 295 292 292 292 292 293
316 316 316 317 318 319 319 320 321 321 322 324 325 325 325 325 324 324 324 323 323 322 322 322 322 321 322 324 326 327 327 328 328 328 329 329 330 330 330 330 330 329 329 329 329 328 327 327 327 327 326 326 326 326 326 326 326 325 324 323 321 320 318 317 316 314 313 312 311 310 309 307 306 305 304 303 302 302 302 301 299 297 294 292 292 292 293
320 321 321 320 320 320 320 320 320 322 324 324 323 324 326 325 325 325 325 324 324 323 323 324 324 323 323 323 324 325 326 327 327 328 328 329 329 330 330 330 330 329 329 328 328 327 327 326 326 326 326 326 325 325 326 326 326 325 324 322 320 319 318 317 315 314 313 312 311 310 308 307 306 305 304 303 302 302 301 300 300 299 296 294 292 292 293
321 322 321 319 319 319 320 320 320 322 324 322 320 321 324 325 325 325 324 324 324 324 323 324 325 325 325 324 323 324 324 325 327 327 327 328 329 329 329 330 330 329 329 328 327 327 326 326 326 326 326 325 325 325 325 325 325 325 323 321 320 319 318 317 315 314 313 312 311 309 308 307 307 305 305 304 303 302 300 298 298 297 296 294 293 292 293
323 322 320 319 319 320 320 319 320 322 325 324 321 321 324 325 325 324 323 323 323 322 322 323 323 324 325 325 324 324 324 324 325 326 327 328 328 328 329 329 329 329 328 327 327 326 326 326 326 326 325 325 325 324 324 324 324 324 323 321 319 319 318 317 315 314 313 312 311 308 307 307 306 305 304 303 302 301 298 297 296 295 294 294 294 293 293
324 324 322 321 321 322 320 319 320 321 323 325 324 324 325 326 326 325 324 323 322 321 321 320 321 323 325 325 325 325 325 324 324 325 326 326 327 327 328 328 328 328 328 328 328 327 326 326 326 325 325 325 324 324 324 323 323 323 322 320 318 318 317 316 315 314 313 312 310 307 306 305 305 304 303 302 301 299 297 297 296 295 294 294 293 293 294
322 321 319 318 320 321 320 319 320 321 322 323 324 324 325 325 326 326 325 325 324 323 322 321 321 322 324 325 325 325 325 325 325 325 325 326 326 327 327 327 328 327 327 328 328 326 325 325 326 325 324 324 324 323 323 323 322 322 321 319 318 317 316 316 315 314 313 311 309 306 305 304 303 303 303 302 301 300 299 297 296 294 294 294 293 293 295
318 317 317 317 320 321 320 319 320 321 321 322 322 322 323 324 324 325 326 325 325 324 324 323 322 322 323 324 324 325 325 326 325 325 325 325 325 326 326 327 327 327 326 327 327 325 324 325 326 325 324 324 323 323 323 322 322 321 320 319 318 318 317 316 315 314 312 311 309 306 305 304 303 302 302 301 301 300 300 298 295 294 293 293 293 294 297
318 317 318 319 320 320 319 319 320 320 320 321 321 321 321 322 322 323 323 324 324 324 324 324 323 323 323 323 324 324 324 325 325 325 325 325 325 325 326 326 326 327 327 327 326 325 324 325 326 325 324 323 323 323 322 322 321 320 319 319 318 318 317 315 314 313 312 310 308 306 305 303 302 302 301 300 299 299 298 297 295 293 293 293 294 296 298
318 318 319 320 320 319 319 320 319 319 320 320 320 321 321 321 321 321 321 321 322 322 323 323 322 322 322 323 324 324 324 324 324 325 325 325 325 325 325 326 326 326 327 327 326 325 324 325 325 325 324 323 323 322 322 321 320 319 318 318 318 317 316 315 314 313 311 310 308 306 304 302 302 301 300 299 299 298 296 295 294 293 292 293 295 298 299
318 319 320 320 320 319 319 320 320 320 320 319 320 320 320 320 320 321 320 320 321 321 321 322 322 321 322 322 323 324 324 324 324 324 324 325 325 325 325 325 325 326 326 326 325 325 325 325 325 324 323 323 322 321 320 320 319 318 318 317 317 316 315 314 314 313 312 310 308 305 303 301 300 300 300 300 299 298 296 295 294 293 293 294 296 298 299
319 318 318 320 320 320 320 320 320 319 318 318 318 318 317 318 318 319 320 320 320 320 320 321 322 322 322 322 323 323 324 324 323 323 323 324 324 324 324 324 325 325 325 325 324 324 324 324 324 323 322 321 320 320 320 319 318 317 317 316 315 314 313 313 313 312 311 309 307 304 301 300 300 300 300 300 300 299 297 295 294 294 294 296 298 299 299
319 318 318 318 320 320 320 319 319 318 317 316 316 316 316 316 316 317 318 319 320 320 320 321 322 322 322 322 322 322 323 323 323 323 323 323 323 324 324 324 323 323 323 324 324 324 324 323 323 321 320 319 319 319 318 318 318 317 316 315 314 313 313 313 313 312 310 308 307 304 302 300 300 301 301 301 301 299 298 296 294 294 296 297 299 299 300
317 316 317 318 319 319 319 318 318 316 315 315 315 315 315 315 315 316 317 317 318 319 319 320 321 322 322 322 322 322 322 322 322 322 322 322 323 323 323 323 323 323 323 323 323 324 323 322 321 320 319 319 318 318 318 317 317 316 316 315 314 314 314 313 312 311 310 308 307 305 303 301 301 301 301 301 301 300 299 296 295 295 297 298 299 300 300
314 314 316 318 318 318 318 317 316 315 313 313 314 313 313 313 312 313 314 315 317 318 318 319 319 320 320 321 321 321 321 321 321 321 322 322 322 322 322 323 323 323 323 324 323 323 322 321 320 319 318 318 318 317 317 317 316 315 315 314 314 314 313 312 312 311 309 308 307 305 303 302 302 302 301 301 301 301 300 297 295 296 298 299 299 300 301
316 315 317 317 317 317 318 316 315 314 312 312 312 312 311 311 310 310 311 312 314 316 317 317 318 318 318 319 319 320 320 320 320 321 321 321 321 321 321 322 322 322 322 323 323 323 322 321 319 318 318 317 317 317 316 316 316 315 314 314 313 312 312 311 311 310 309 308 307 305 304 303 302 302 302 302 301 301 300 298 296 296 298 299 300 300 301
316 316 317 317 317 317 317 316 315 314 313 312 312 312 312 311 310 310 309 309 312 315 316 317 317 317 316 317 317 318 319 319 319 320 320 320 320 320 321 321 321 321 321 322 322 322 322 320 319 318 317 317 316 316 316 316 315 315 314 314 313 312 311 311 310 310 309 308 306 305 304 303 303 302 302 301 301 300 299 298 297 296 297 298 299 300 301
316 316 315 316 316 315 315 315 314 314 314 313 312 312 312 311 310 310 309 309 311 314 315 316 316 316 316 316 317 317 318 318 318 318 319 319 320 320 320 320 320 320 320 320 320 320 320 319 317 317 317 317 316 316 316 315 314 314 313 313 312 311 310 310 310 310 309 308 306 305 304 303 303 302 302 301 301 300 299 298 297 296 296 297 298 300 301
315 315 315 316 315 313 312 312 312 313 314 314 313 312 312 311 310 309 309 309 312 315 316 316 316 316 316 317 317 317 317 317 318 318 318 318 319 319 319 319 319 319 319 319 319 319 319 318 317 317 317 317 316 316 315 315 315 314 313 312 311 310 310 310 310 310 309 307 306 305 304 303 303 302 302 301 301 300 299 299 297 296 296 296 298 300 301
315 315 315 315 314 313 312 312 312 312 313 314 313 312 311 311 310 309 309 311 314 316 316 315 316 315 315 315 315 315 315 316 316 316 317 318 318 318 318 318 318 318 318 318 318 318 318 317 317 317 316 315 315 315 315 315 315 314 314 313 311 310 310 309 309 309 308 307 306 305 304 303 302 302 301 301 301 300 300 299 298 297 296 297 298 300 301
314 314 313 313 313 312 312 312 312 312 313 314 313 312 311 311 310 310 311 313 315 315 314 314 314 313 313 313 312 312 312 313 313 313 314 314 315 316 317 317 318 317 317 317 317 317 317 317 317 316 316 316 315 315 315 315 314 314 313 312 311 310 310 309 309 309 308 307 305 304 304 303 302 302 301 301 301 300 300 300 298 297 296 297 299 300 301
312 312 312 312 312 312 312 312 312 312 313 313 312 311 311 311 311 311 313 314 314 313 312 312 312 311 311 311 310 310 310 310 310 310 311 311 311 312 313 314 316 317 317 316 316 316 316 316 316 316 316 316 316 315 315 315 314 314 313 312 311 310 309 309 309 309 308 307 305 304 303 303 302 302 301 301 301 300 300 300 298 296 296 296 298 300 300
312 312 312 311 311 311 311 312 312 312 312 312 311 311 311 310 311 312 314 314 313 312 311 311 310 310 309 309 309 309 308 308 308 309 309 309 309 309 310 311 312 314 316 316 315 315 315 315 315 315 315 315 315 315 314 314 313 313 312 312 311 310 309 309 308 308 308 307 305 304 303 302 302 302 301 301 300 300 300 299 297 296 295 296 297 299 300
311 311 310 310 310 310 310 311 311 311 310 310 310 311 311 311 311 313 314 313 312 311 310 309 309 308 308 308 308 309 309 309 309 309 309 309 309 309 310 310 310 312 314 315 315 314 314 314 314 314 314 314 314 314 313 313 312 312 312 311 310 309 309 308 307 308 307 306 305 304 303 302 302 302 301 301 300 299 298 297 296 296 296 296 296 298 300
310 310 310 309 309 309 309 309 309 309 310 310 311 311 312 312 313 314 313 312 312 311 309 309 308 308 308 309 309 309 309 310 310 309 310 310 310 310 310 310 310 311 312 314 314 313 313 314 314 314 313 313 313 313 312 311 311 310 310 310 309 309 308 307 307 307 307 306 305 304 303 302 303 302 302 301 300 298 296 296 296 296 296 296 296 297 299
310 310 309 309 309 309 309 308 308 309 309 310 311 310 311 312 313 313 312 311 311 310 309 308 308 309 309 309 310 310 310 310 309 309 309 309 309 310 310 310 311 311 312 312 313 313 312 313 313 313 313 312 312 311 311 310 310 309 309 308 308 308 308 307 306 305 305 305 304 303 302 303 303 303 302 301 300 298 296 296 296 296 296 296 296 297 299
310 310 309 309 309 309 308 308 308 308 308 308 308 308 309 309 310 311 311 310 309 308 308 308 309 309 309 309 309 309 309 309 309 309 309 309 309 309 310 310 311 311 311 312 312 312 312 312 312 312 312 311 311 311 310 310 309 308 308 307 307 307 307 306 305 305 304 304 303 302 303 303 304 303 303 302 300 297 296 296 296 297 297 298 298 299 300
310 309 309 309 309 309 308 308 308 308 308 308 307 307 308 309 309 309 310 309 308 307 307 308 309 309 309 309 309 308 308 309 309 309 309 309 309 309 310 310 310 311 311 311 311 312 312 312 312 311 311 310 310 310 309 309 308 307 307 306 306 306 305 305 305 304 304 303 303 302 303 303 303 303 303 301 299 298 298 298 298 298 299 299 299 300 301
310 309 309 309 309 308 308 308 308 308 308 308 307 307 307 308 309 309 309 308 307 308 308 308 309 309 309 309 308 308 308 308 309 309 309 309 309 309 310 310 310 310 311 311 311 311 311 311 311 310 310 309 309 308 308 307 307 306 306 305 305 305 305 305 304 304 303 303 302 302 303 303 303 303 301 300 299 299 300 300 299 299 299 300 300 301 301
310 310 309 309 309 308 308 308 308 308 308 308 308 307 307 307 308 309 309 308 308 308 308 308 309 309 308 308 308 308 308 308 309 309 309 309 309 310 310 310 310 310 310 310 310 310 310 310 310 309 309 308 308 307 307 306 306 305 305 305 305 304 304 304 304 303 303 302 302 302 303 303 303 301 299 299 300 301 301 300 300 300 301 301 301 301 301
310 310 309 309 309 309 308 308 308 308 308 308 308 308 307 306 306 307 308 309 308 307 307 307 308 308 308 308 308 308 308 308 309 309 309 309 309 309 309 309 310 310 309 310 310 309 309 309 309 308 308 307 307 306 306 305 305 305 305 304 304 304 304 304 304 303 303 302 302 302 302 303 302 301 299 299 301 301 301 301 302 302 302 301 301 301 301
310 310 310 309 309 309 309 308 309 308 308 308 308 308 308 307 306 306 307 307 307 307 306 306 307 307 308 308 308 308 308 308 308 309 309 308 308 308 308 309 309 309 309 309 309 309 309 309 308 308 308 307 307 306 306 305 305 305 304 304 304 304 304 303 303 303 302 302 302 302 302 303 303 301 300 300 300 301 301 301 302 302 302 302 302 302 301
309 309 309 309 309 309 308 308 308 308 308 308 308 308 307 307 307 307 307 307 307 307 307 307 306 306 307 308 308 308 308 308 307 308 308 308 308 308 308 308 308 308 308 308 308 308 308 308 308 308 307 307 306 306 306 306 305 305 305 305 304 304 304 304 303 303 302 302 302 302 303 303 303 302 300 300 300 300 300 301 301 301 301 302 302 301 301
307 307 308 308 308 308 308 308 308 308 308 308 308 308 308 308 308 308 307 307 307 307 308 308 307 307 307 306 307 308 308 308 308 307 307 307 307 308 308 308 307 307 307 307 307 307 307 307 307 307 307 307 307 306 306 306 306 306 305 305 304 304 304 303 303 303 302 302 302 303 303 302 301 300 300 299 299 299 299 300 300 301 301 302 302 301 301
305 304 304 305 305 306 306 307 307 307 308 308 308 308 308 308 308 308 308 308 307 307 307 307 308 307 307 307 306 307 308 308 308 308 307 307 307 307 307 308 308 307 307 307 307 307 306 306 306 306 306 306 306 306 306 306 306 306 306 305 305 304 304 303 303 302 302 302 302 302 302 301 300 299 299 299 300 300 300 301 301 301 302 302 302 301 301
302 302 302 303 304 304 304 305 305 306 306 307 308 308 308 308 308 309 308 308 308 308 307 307 307 307 307 307 307 306 307 307 308 308 308 307 307 306 306 307 307 307 307 307 307 306 306 305 305 305 305 305 306 306 306 306 306 306 306 306 305 304 304 303 302 301 301 301 301 301 301 300 299 299 300 301 301 301 301 301 302 302 302 302 302 302 302
Wind_Speed
5 5 5 6 9 13 13 13 13 12 11 12 12 8 5 6 8 7 4 6 8 10 15 13 5 2 6 7 8 9 13 18 21 24 27 27 28 32 34 37 40 40 40 43 45 43 39 37 35 33 34 36 34 31 31 35 35 31 27 25 24 22 21 21 20 19 18 18 17 17 18 17 16 15 15 16 16 15 14 13 13 13 12 11 10 10 10
6 7 9 9 10 11 11 12 13 13 13 13 13 9 6 7 8 3 1 6 8 10 15 10 2 2 5 7 10 12 15 19 22 25 27 28 30 32 35 39 41 41 42 43 43 43 41 38 36 36 36 35 33 31 34 38 37 32 27 23 22 23 22 21 20 19 19 19 18 19 19 17 15 14 15 16 16 15 13 13 13 13 13 13 12 11 10
5 3 5 9 12 12 11 12 11 12 13 12 12 10 7 5 6 2 0 4 6 9 10 5 3 4 7 8 12 15 19 21 23 25 26 27 30 32 36 41 42 41 42 43 43 44 42 37 37 40 40 37 34 32 33 36 36 31 26 23 21 22 21 21 21 20 20 20 20 20 19 17 15 15 16 16 15 14 13 13 13 14 14 13 12 12 11
4 1 1 6 9 7 7 9 11 13 12 10 9 8 7 7 8 5 2 3 7 7 4 2 0 4 7 9 12 16 20 24 27 28 27 29 32 35 38 41 40 39 41 43 43 44 41 36 37 40 41 38 35 33 31 32 33 30 28 25 24 23 22 22 22 21 21 21 20 20 19 16 15 15 16 17 15 13 13 13 14 15 14 13 12 12 12
3 4 1 7 9 5 4 7 10 13 12 9 7 4 5 9 9 6 6 7 7 4 2 3 5 6 8 10 13 18 21 25 29 30 30 31 34 35 37 40 40 40 41 42 42 43 41 37 36 39 40 37 35 35 35 33 31 32 32 29 25 24 23 23 23 22 21 21 21 20 19 16 16 16 17 17 17 15 14 14 15 15 14 13 13 12 12
2 4 1 8 8 5 4 2 5 12 13 12 11 8 8 10 8 4 4 6 4 2 5 7 7 7 8 10 14 18 21 25 28 29 30 32 34 34 35 38 40 41 41 40 40 41 41 37 34 36 37 35 34 37 39 34 28 31 35 32 27 25 26 26 25 23 22 22 21 21 19 18 18 16 17 18 18 16 16 16 16 15 14 13 13 13 13
2 3 1 6 5 3 0 3 0 5 7 9 11 11 11 11 9 6 6 7 6 6 7 7 4 4 5 6 12 18 20 25 28 30 30 30 31 33 34 36 39 40 41 40 38 38 38 36 36 37 37 37 37 38 36 31 25 29 35 34 30 28 29 29 27 25 24 23 22 22 22 21 19 16 18 20 18 16 16 16 15 14 13 13 14 14 14
1 1 2 4 1 2 2 3 2 3 4 5 7 8 9 9 10 10 9 8 6 5 7 7 5 5 5 5 10 18 23 27 30 31 30 30 31 33 33 36 40 41 41 40 39 37 36 35 36 38 38 37 37 34 32 31 29 29 32 33 31 30 31 30 28 27 26 25 24 24 23 22 20 17 18 20 18 17 16 16 15 15 14 14 14 14 14
0 1 1 1 2 0 2 1 2 3 3 5 6 7 8 7 8 11 10 6 4 4 6 6 6 7 6 3 8 18 26 30 33 32 29 29 30 29 27 30 37 39 38 38 37 36 36 35 35 36 35 34 32 32 33 35 34 32 32 34 34 32 32 31 30 28 26 25 24 23 23 23 21 18 19 20 18 17 17 17 17 16 15 15 15 15 15
0 0 1 1 1 2 2 1 1 1 1 3 4 4 6 5 6 11 11 7 5 5 4 6 9 9 5 3 7 19 28 31 32 33 29 26 25 24 23 27 34 37 36 36 36 35 36 36 34 33 34 33 33 34 35 35 35 34 35 36 36 35 35 33 30 27 24 24 23 22 23 24 21 19 20 21 18 16 16 16 17 16 16 17 17 16 15
0 1 1 0 1 1 1 1 0 0 2 5 5 4 6 3 4 10 11 7 6 7 7 9 11 7 5 3 2 14 29 32 31 32 30 27 27 26 25 28 32 34 35 35 35 35 36 36 35 34 33 33 34 34 33 33 34 35 35 36 37 37 36 32 28 25 24 24 24 23 24 23 20 19 21 20 18 17 16 16 17 17 17 18 18 17 16
1 1 0 1 2 1 2 3 2 1 4 6 6 6 5 1 2 9 11 8 8 10 11 12 9 5 4 2 3 7 23 28 28 29 28 27 29 29 28 29 30 32 34 35 36 36 36 36 35 35 33 33 34 34 33 34 34 33 32 33 34 36 34 30 26 25 24 24 24 24 24 23 20 20 21 21 19 18 18 18 18 18 18 18 18 18 17
2 3 2 1 3 2 2 4 3 3 5 5 5 5 2 1 3 8 12 11 12 15 16 13 7 3 2 4 4 6 19 25 26 27 26 25 26 27 27 29 30 32 33 33 34 35 35 34 34 34 34 34 34 33 34 34 32 29 28 28 30 32 31 29 27 25 24 24 24 24 24 23 21 21 22 21 20 19 20 20 20 19 19 19 18 18 17
1 2 3 2 2 3 2 5 4 1 3 3 2 1 1 3 4 5 9 12 14 18 19 12 6 5 6 6 6 7 16 23 25 25 25 24 25 27 27 28 29 31 32 33 33 34 34 34 33 32 32 33 33 33 34 33 29 27 27 27 26 28 29 28 27 25 24 24 25 24 24 23 23 23 23 22 20 20 20 21 20 20 20 20 20 19 18
1 0 2 2 2 2 2 5 3 1 1 0 1 2 2 2 4 4 5 9 11 17 20 15 8 7 5 5 8 7 11 17 19 21 23 24 25 27 28 29 30 30 31 32 34 34 34 34 32 30 30 31 33 34 33 31 29 28 27 27 26 27 28 28 27 25 24 25 26 25 25 24 25 25 25 24 21 20 21 21 21 20 20 21 21 19 18
1 0 1 1 1 2 4 3 1 1 2 2 2 2 2 4 4 4 1 5 10 14 16 14 11 8 5 2 4 7 10 13 14 16 19 22 24 26 27 28 29 30 30 31 33 33 34 33 31 29 29 30 32 33 32 31 30 28 27 27 27 27 28 28 27 25 24 25 26 25 24 25 26 26 26 25 23 22 22 22 22 22 22 22 22 20 19
1 1 1 1 3 6 6 3 1 3 2 4 7 5 5 6 7 7 6 4 7 9 8 7 8 8 7 5 5 7 9 11 13 14 17 20 22 24 25 27 28 29 30 30 31 33 34 33 30 28 28 28 29 30 30 30 29 27 27 28 28 28 28 28 26 25 25 26 26 25 25 26 27 27 27 26 25 24 24 23 22 23 23 23 23 21 20
1 2 2 3 4 5 3 0 2 2 3 9 11 9 8 8 9 10 11 11 10 9 7 6 6 6 6 7 8 8 9 10 12 14 16 19 20 22 25 27 28 29 29 30 31 33 33 32 30 28 27 26 26 27 28 28 27 27 27 27 28 28 28 28 27 27 26 27 26 25 25 26 26 27 27 27 26 25 25 24 23 24 25 25 23 22 22
1 1 2 2 2 1 3 3 2 2 8 13 12 10 10 10 10 12 13 13 14 14 13 12 12 11 10 8 8 9 9 10 11 12 15 18 20 22 23 24 26 29 31 31 32 33 32 31 30 28 27 25 24 24 26 26 26 27 27 27 27 28 28 28 28 27 27 26 25 25 26 26 26 27 27 26 26 26 27 26 25 25 25 25 25 25 24
1 1 2 2 2 1 3 3 3 5 10 13 11 9 9 9 10 11 12 13 14 15 16 15 14 14 13 10 9 8 7 7 8 10 12 14 17 20 22 23 26 29 31 32 32 32 31 30 28 27 27 26 24 23 24 25 26 26 27 27 26 25 26 27 27 27 26 26 25 26 27 28 28 28 29 28 27 27 26 26 26 26 27 27 27 26 24
1 1 2 2 0 2 2 3 4 7 10 13 11 8 6 6 8 9 10 11 13 14 15 15 14 14 14 13 11 9 7 6 6 8 10 11 14 18 21 23 26 29 31 31 31 29 28 27 26 26 27 27 25 22 22 24 25 26 27 27 25 25 26 27 27 27 27 26 26 27 28 29 29 28 28 27 26 25 24 24 23 24 25 26 25 25 23
1 1 2 3 2 1 2 3 5 7 10 11 12 10 8 6 5 6 8 9 10 12 13 13 13 13 13 12 12 11 9 7 5 5 7 10 13 17 19 22 26 28 28 27 25 22 21 23 25 27 27 26 25 24 23 23 23 25 27 27 27 27 27 27 27 27 27 27 26 27 28 29 29 27 26 24 23 22 21 21 21 22 22 22 22 22 22
1 3 3 4 3 3 5 7 7 8 9 9 10 10 10 8 7 6 6 6 8 10 11 12 12 12 11 10 10 11 10 9 7 5 5 8 11 15 18 22 25 25 25 23 21 19 19 21 26 28 28 27 26 25 24 23 23 24 25 26 27 28 27 26 26 26 27 27 27 27 28 29 28 28 27 25 23 22 20 19 20 21 20 20 20 21 20
2 4 3 5 4 6 9 10 9 10 10 9 10 10 9 9 8 6 5 5 6 7 8 9 11 11 11 10 9 9 9 9 8 6 5 6 8 12 16 19 21 22 22 23 23 23 21 22 24 27 27 25 24 23 23 23 24 24 24 24 26 26 26 25 25 26 28 27 26 27 28 28 28 27 27 27 26 24 21 20 20 20 19 20 21 21 20
3 3 3 8 10 12 14 13 11 12 10 8 9 9 8 8 8 6 5 5 4 4 5 6 8 9 9 9 9 9 8 8 8 7 5 5 7 9 12 15 17 19 21 22 24 23 22 22 22 23 24 23 22 22 22 23 24 24 23 23 23 23 25 26 27 28 28 26 25 26 28 28 28 28 27 27 26 25 24 23 22 22 22 22 23 22 20
3 4 10 13 14 15 15 12 11 11 9 8 7 7 7 7 6 5 5 4 4 3 4 4 5 7 8 8 8 8 8 8 7 7 6 5 5 6 8 11 14 16 18 20 21 21 20 20 20 21 21 21 21 21 22 23 23 22 21 21 21 21 23 25 26 26 26 25 25 26 27 28 28 27 27 26 25 25 26 26 25 26 26 26 25 23 21
6 11 11 10 10 10 9 9 9 10 9 8 7 6 6 5 4 3 3 3 3 3 3 3 3 5 6 6 6 6 7 8 8 8 7 5 4 5 6 9 11 14 15 16 17 18 18 18 18 18 18 18 19 20 22 22 21 21 20 20 20 21 22 23 23 23 24 23 23 25 26 26 26 26 25 25 24 25 26 27 28 28 28 27 25 24 23
10 9 4 1 5 8 8 8 9 9 8 7 6 6 5 3 2 2 2 1 1 1 2 1 2 3 4 5 5 5 6 7 8 7 7 7 6 5 6 7 9 11 13 14 15 16 17 16 17 16 16 17 17 19 20 20 20 20 20 20 21 22 22 22 21 21 21 20 21 23 24 24 24 24 24 23 23 24 25 26 27 27 27 26 25 24 23
7 4 1 0 6 10 10 9 8 7 6 6 6 6 4 3 3 3 3 2 2 1 1 1 0 1 2 4 5 6 6 6 6 6 6 6 6 7 7 7 8 10 12 14 15 16 16 16 16 16 16 16 17 18 19 19 19 19 19 20 21 21 20 20 19 20 20 19 18 20 21 22 23 23 23 23 23 23 24 25 27 27 26 26 25 24 23
6 5 3 5 9 10 9 9 7 5 5 5 5 5 5 4 5 5 4 3 2 2 2 2 1 1 1 2 3 5 6 6 6 6 5 5 6 7 8 9 10 11 13 14 15 16 16 16 16 16 16 16 17 17 18 18 18 18 19 19 18 17 17 19 20 20 19 18 17 19 21 22 23 23 23 23 23 23 23 24 26 27 27 26 26 25 23
9 8 6 8 11 10 8 8 7 6 5 4 4 6 7 7 7 6 5 3 2 2 3 3 2 2 2 2 2 3 4 5 5 5 5 4 4 5 7 8 9 10 12 14 16 16 16 16 16 16 16 16 17 17 17 18 18 19 19 19 17 16 17 18 18 18 17 18 18 20 22 24 24 24 23 23 24 24 23 23 26 28 27 26 26 25 22
9 8 7 9 10 9 8 7 6 6 6 5 5 6 8 9 10 9 7 4 2 3 4 4 4 4 4 4 3 4 4 4 4 4 4 4 4 4 5 6 7 8 10 13 15 17 18 18 17 16 15 16 16 17 17 17 18 18 18 19 18 18 18 17 17 17 17 17 18 19 21 22 23 23 23 23 23 23 22 22 25 27 27 26 27 25 22
11 7 7 9 10 9 8 8 6 6 6 6 6 5 6 8 9 10 9 5 1 2 4 4 4 5 6 6 5 5 5 5 5 5 4 4 4 4 5 5 6 7 9 10 12 15 17 16 15 15 15 15 16 16 16 16 17 17 18 18 18 18 18 17 17 17 16 17 17 17 18 19 21 21 22 22 21 21 21 22 24 26 26 26 27 25 22
14 6 4 7 7 7 8 8 7 7 7 7 6 4 4 5 7 8 8 6 2 2 4 4 5 5 6 7 6 6 5 5 5 6 6 6 6 6 6 6 6 7 8 9 11 14 14 13 13 14 14 14 15 15 15 16 17 17 18 19 19 18 18 18 18 18 17 16 16 16 17 18 20 21 22 22 22 21 21 22 24 25 26 26 27 25 21
11 3 1 4 6 6 7 7 5 5 7 7 6 5 3 4 5 7 7 5 3 1 4 5 6 7 7 8 8 8 7 6 6 6 6 7 7 7 7 6 6 7 7 9 11 12 13 13 13 13 14 15 17 17 16 17 17 17 17 18 19 18 18 19 19 19 17 16 16 17 18 19 20 20 21 22 22 22 21 21 23 24 25 26 26 24 21
5 2 3 5 6 6 6 5 4 3 5 7 6 5 3 3 4 5 6 4 2 5 7 8 8 9 9 10 10 10 9 8 7 6 6 6 6 6 6 6 6 7 7 8 10 11 12 13 13 13 14 17 19 20 19 18 17 16 16 17 18 18 18 18 19 19 19 18 17 17 17 17 18 19 20 21 21 21 21 21 22 23 24 25 25 23 20
6 6 6 6 6 6 5 5 5 2 3 7 7 5 3 3 3 5 5 5 7 9 10 10 10 10 9 9 9 8 8 7 6 6 5 5 4 4 4 4 5 6 7 8 9 10 12 12 12 12 14 16 18 19 18 16 15 16 16 17 18 18 19 19 20 21 21 21 19 17 16 16 18 19 21 21 20 20 20 21 22 23 24 24 24 22 20
9 9 8 7 6 5 4 4 3 1 3 7 7 4 3 4 3 4 6 8 10 10 10 9 8 7 6 6 6 5 4 4 3 2 1 1 1 0 1 2 4 5 7 7 8 9 9 10 10 11 12 14 15 17 16 15 14 15 16 17 17 17 18 20 21 22 22 22 21 20 18 18 18 19 21 22 21 20 21 22 23 23 24 24 24 22 20
9 8 7 6 5 4 4 4 4 4 5 6 4 3 4 4 3 5 8 10 10 9 8 7 5 5 5 4 5 5 5 4 4 4 4 5 5 6 7 7 7 7 8 8 8 8 8 8 8 8 8 9 10 12 13 13 13 14 15 17 17 16 17 19 21 22 22 22 23 22 20 19 18 18 20 21 21 21 22 24 24 24 25 24 23 22 20
6 6 7 7 8 7 7 7 7 7 6 5 4 4 4 4 4 7 10 10 9 9 7 5 4 4 4 4 4 4 4 3 3 3 3 4 5 7 8 9 10 10 10 10 10 9 9 8 8 8 8 8 8 9 9 11 12 13 15 17 17 17 17 18 21 22 23 22 23 23 22 20 19 19 21 22 22 23 24 25 26 26 25 24 23 22 21
6 8 10 11 11 10 8 7 6 5 4 4 4 5 5 6 7 9 9 8 7 6 5 4 5 4 3 2 1 1 1 1 0 1 2 3 4 4 6 7 8 9 10 10 10 10 10 10 10 10 10 10 10 10 9 10 11 13 14 16 16 16 17 18 20 22 22 21 22 23 23 22 22 22 23 24 24 24 25 26 27 26 25 24 23 22 20
8 10 12 11 11 10 9 7 6 5 4 5 6 7 7 8 8 8 7 7 6 5 4 4 4 3 2 0 1 1 1 1 1 1 1 2 2 3 4 6 7 8 9 10 10 10 11 11 11 11 11 11 11 10 10 10 11 13 14 15 15 15 16 18 19 20 21 21 22 24 25 24 23 23 25 26 26 25 25 26 26 25 23 22 21 20 19
8 9 10 10 10 10 9 7 6 7 7 7 7 6 6 6 6 6 7 7 6 4 3 2 2 2 2 1 0 1 2 2 1 1 1 2 2 2 4 5 7 8 9 10 10 10 11 12 12 12 12 12 12 11 11 11 12 12 13 14 14 15 16 16 17 18 20 22 24 26 26 23 20 21 25 28 27 26 26 26 24 22 21 19 18 18 18
7 7 7 7 8 8 7 6 6 8 8 8 7 6 5 4 4 5 5 4 3 2 1 1 2 2 2 2 2 1 1 1 2 2 3 3 3 2 3 5 7 9 10 11 11 12 12 13 13 13 13 13 13 13 13 12 12 12 12 12 13 14 14 15 16 17 19 21 24 27 27 24 20 19 22 25 26 25 24 24 22 20 18 18 18 18 18
6 5 5 6 6 6 5 4 5 6 7 6 7 6 5 3 3 4 5 4 3 3 3 3 4 3 3 3 3 3 2 1 2 3 3 4 3 3 3 4 6 9 11 12 12 13 13 14 14 14 14 14 14 14 14 13 12 12 12 11 11 12 13 14 15 17 18 21 24 27 27 24 19 17 19 23 23 22 22 21 19 18 17 17 17 17 16
5 5 5 5 5 4 4 4 4 4 5 5 5 6 5 4 2 3 5 5 4 4 4 4 5 4 3 4 5 5 3 1 2 3 4 4 3 3 3 4 6 8 9 11 11 12 13 14 14 14 14 14 14 14 14 13 13 12 12 11 12 12 13 14 15 17 18 20 24 27 26 22 18 18 21 23 21 20 19 19 18 18 18 17 16 16 16
5 5 5 5 6 6 5 4 4 4 5 5 5 5 4 5 4 3 4 5 3 2 2 3 3 3 2 1 2 3 3 1 2 4 4 4 4 4 4 5 6 8 9 9 10 11 12 13 14 14 15 15 15 14 14 14 13 13 12 12 12 12 12 13 14 15 17 20 23 26 25 22 20 22 25 24 20 18 19 18 18 18 18 17 17 17 17
6 6 6 6 7 7 7 6 6 5 5 5 6 6 4 3 3 3 3 3 3 2 2 1 1 2 2 3 3 4 4 4 4 4 4 4 4 5 5 5 7 8 9 9 9 10 11 11 13 13 14 15 15 14 14 14 13 13 13 12 12 11 11 12 12 14 16 20 23 25 24 22 21 24 27 26 21 19 18 18 17 18 18 17 17 17 18
5 5 5 6 7 7 7 7 6 4 3 5 8 8 6 4 3 2 2 2 3 3 2 2 1 2 4 5 4 4 5 6 7 6 5 4 4 4 4 5 6 7 7 8 8 8 9 10 11 12 13 14 15 15 15 14 14 13 13 13 12 12 12 12 12 14 16 19 22 23 23 22 22 24 27 25 21 19 19 19 19 18 17 16 16 16 17
11 11 8 6 5 5 4 4 4 3 2 5 8 8 7 6 4 3 2 2 2 2 2 2 2 1 0 1 2 3 3 4 6 7 7 6 5 3 3 4 5 6 6 7 7 7 7 7 8 9 10 12 13 14 15 15 14 14 13 13 12 12 12 12 13 15 17 19 20 21 21 21 21 24 25 23 20 19 19 19 19 18 17 16 17 18 18
18 20 20 17 14 12 10 8 6 4 3 3 6 7 7 6 6 5 4 4 3 2 1 1 1 2 3 3 2 1 1 2 3 4 5 5 6 5 4 3 3 5 6 5 5 5 6 5 5 5 6 7 9 11 12 13 14 15 14 13 13 12 12 12 14 15 18 19 20 20 20 21 23 24 22 19 18 18 18 18 18 19 18 18 18 18 19
21 23 24 22 19 17 17 15 13 11 9 5 3 3 4 5 6 6 6 6 6 5 3 2 1 1 1 3 4 4 3 2 2 2 2 2 2 3 3 3 3 3 4 4 4 5 5 5 5 5 5 5 6 7 8 10 13 14 15 14 14 13 13 13 14 16 17 18 18 19 20 23 23 21 18 17 17 17 17 18 19 19 19 19 18 18 18
Wind_Direction
242 230 218 206 203 200 192 188 185 174 167 177 189 200 171 160 206 224 155 161 208 240 261 271 283 221 209 189 181 178 172 173 174 174 175 175 178 183 184 184 186 190 190 189 190 194 198 203 204 203 204 202 198 199 206 207 201 197 197 200 205 210 217 221 221 222 222 219 214 211 206 207 213 207 191 183 181 180 181 181 177 175 176 177 179 178 173
257 238 223 210 205 204 193 187 184 175 177 187 193 197 183 189 223 258 133 209 227 246 260 274 360 141 188 166 162 167 173 176 175 175 176 177 180 182 182 183 188 193 194 192 193 197 200 203 203 201 198 197 200 206 211 205 197 193 194 199 207 215 220 221 221 220 219 215 210 206 204 207 210 201 190 189 188 183 182 181 179 179 179 178 178 176 174
273 245 220 206 198 197 194 188 182 178 181 188 198 202 184 191 229 238 174 245 246 250 264 303 52 152 165 161 166 170 174 175 174 175 176 177 180 182 183 187 190 193 195 194 194 196 199 202 203 200 197 197 200 205 209 204 196 192 194 200 212 219 221 221 221 218 215 210 205 202 203 204 201 195 193 194 193 189 184 182 182 183 182 180 179 175 172
282 354 227 192 179 180 198 201 190 182 184 188 196 197 172 183 210 199 161 233 244 246 259 342 315 183 174 179 176 173 176 175 174 176 175 178 182 183 186 189 188 189 193 195 193 193 198 203 204 201 200 199 200 203 207 203 200 202 201 201 210 220 222 221 220 217 212 206 202 201 200 198 194 192 192 192 193 192 188 185 185 184 182 181 179 174 171
306 346 20 145 138 142 215 226 200 184 185 186 182 187 189 192 197 189 197 223 237 245 220 209 214 203 205 204 186 179 180 179 178 178 178 182 186 186 188 188 187 190 194 197 198 197 200 204 207 206 203 202 204 207 205 201 206 214 207 199 206 219 222 219 219 218 212 204 202 201 197 191 188 189 191 192 192 190 188 188 187 184 182 179 176 175 173
315 338 47 133 137 174 205 240 199 186 186 183 178 186 201 202 197 196 230 242 244 238 218 213 207 203 214 213 196 189 183 177 179 182 184 187 188 189 190 189 190 194 195 198 201 203 203 205 206 207 206 208 214 212 204 200 210 218 208 198 202 215 221 219 217 216 212 205 203 200 195 189 186 190 197 196 192 189 189 191 187 182 182 178 175 175 174
289 331 157 149 163 207 183 20 279 189 179 180 187 196 199 199 201 210 238 241 232 229 227 228 243 239 230 216 204 199 189 180 180 183 186 187 185 188 191 191 193 195 196 198 202 205 207 208 208 209 210 213 213 208 201 201 213 221 214 205 204 212 220 219 215 213 211 206 201 199 196 190 189 197 201 196 192 191 191 191 187 181 180 178 176 176 176
279 313 168 165 216 310 36 50 102 130 109 140 185 213 216 206 200 205 221 229 223 229 231 236 252 234 215 210 210 207 202 197 192 188 186 185 184 187 189 191 194 197 199 202 204 204 207 210 210 210 209 207 205 202 205 210 214 218 218 214 212 214 218 218 215 213 210 203 199 199 196 192 195 203 199 192 193 194 191 189 184 179 179 179 178 178 178
9 268 250 271 292 232 115 95 157 164 143 138 166 208 220 207 196 202 213 222 203 204 222 216 188 174 176 203 221 215 211 206 201 196 191 187 187 187 187 191 196 199 199 201 203 203 205 207 208 207 205 204 205 210 216 216 213 212 216 218 219 219 219 218 216 214 210 205 202 202 198 197 201 203 196 192 193 193 191 188 182 178 179 179 178 179 179
48 287 338 318 231 165 152 188 172 157 159 135 144 201 213 193 189 198 206 214 190 177 194 185 165 162 181 240 226 212 208 204 201 199 196 192 188 185 186 191 195 198 199 200 202 203 204 206 208 209 208 209 213 217 218 215 212 213 217 220 221 222 221 219 215 212 211 209 209 207 205 204 204 200 193 193 193 191 190 188 182 180 181 179 177 178 179
304 6 16 236 219 55 54 237 235 88 186 156 143 199 217 198 175 188 197 208 196 181 178 174 168 173 208 236 230 204 201 198 198 199 198 196 195 194 195 196 196 197 199 200 202 204 206 207 209 210 210 212 213 214 213 213 215 218 221 222 224 224 222 218 213 211 210 209 209 210 209 208 205 198 194 193 191 187 186 186 184 183 182 181 180 178 178
181 147 24 259 254 317 315 288 315 86 159 161 164 194 208 201 174 190 194 202 200 187 175 173 179 196 221 258 330 203 193 191 195 199 199 198 198 198 199 198 197 197 197 198 200 203 206 208 208 208 209 209 210 210 212 215 218 220 223 225 227 226 221 215 213 212 209 207 208 209 209 208 204 198 195 194 191 186 183 183 186 185 183 183 183 180 179
176 176 166 301 293 284 282 298 331 95 139 167 186 193 190 345 272 217 207 213 211 194 181 179 188 166 70 8 353 181 184 187 192 197 199 200 201 201 200 199 198 197 197 199 201 202 204 206 208 207 207 206 208 211 216 219 219 218 222 226 227 224 219 214 213 212 208 207 207 207 208 208 203 196 195 196 193 188 184 182 183 185 185 184 185 184 183
209 188 149 137 273 264 297 324 331 140 163 171 180 217 328 302 284 254 225 226 221 198 186 182 175 143 104 58 57 137 180 189 190 191 195 198 200 202 203 201 199 199 198 200 201 202 203 206 207 207 206 207 209 213 218 220 218 217 220 223 223 221 217 214 212 209 205 205 206 204 206 206 202 196 196 198 196 191 187 183 182 185 187 186 185 185 183
245 30 111 135 201 220 311 328 335 195 209 358 347 301 323 331 323 307 239 223 208 192 189 187 173 156 133 87 78 113 170 189 191 193 195 196 198 201 202 201 201 201 200 199 201 203 205 206 206 206 206 208 211 215 218 218 215 215 219 220 219 218 215 211 208 205 203 204 204 204 204 203 200 198 197 197 197 195 191 187 184 186 189 188 185 183 184
177 98 55 116 178 261 297 303 315 278 291 6 30 344 13 31 15 6 299 200 184 182 190 194 193 195 204 180 123 129 155 176 188 194 197 198 200 201 202 202 202 203 202 200 200 203 206 206 205 204 204 207 211 215 216 215 212 214 218 219 217 215 212 208 203 201 202 204 204 204 203 200 199 199 199 198 197 197 196 194 190 190 192 191 187 185 186
210 223 284 297 278 282 285 261 229 284 299 83 72 52 45 44 43 48 53 93 153 165 176 188 197 210 218 206 160 144 150 162 175 187 195 199 200 200 201 202 203 203 204 203 201 202 205 206 205 203 204 206 209 212 214 213 212 215 217 217 214 212 210 206 202 200 201 202 204 204 202 199 198 199 201 200 199 199 199 198 196 195 195 195 192 190 190
248 256 270 286 286 295 316 100 196 240 101 90 76 63 60 54 56 64 63 69 92 108 105 99 108 135 156 159 153 150 151 155 168 182 191 196 199 200 201 202 201 201 203 203 201 201 203 204 204 204 205 207 209 211 212 211 213 216 218 217 213 210 207 203 200 199 199 201 203 203 201 200 201 202 202 202 202 202 202 201 201 201 200 199 197 195 193
229 201 217 249 266 332 26 65 121 105 93 92 79 61 54 49 54 65 66 67 74 78 73 69 71 80 94 113 134 146 151 159 169 180 187 192 195 198 202 204 200 198 200 201 200 201 201 201 202 203 205 207 210 212 212 211 213 217 218 215 211 207 205 202 199 199 200 201 202 202 200 202 204 205 205 206 207 207 205 203 203 203 204 203 201 197 194
226 206 232 266 294 14 56 85 88 75 90 99 90 64 45 37 41 50 55 60 66 67 64 61 60 65 72 81 98 118 139 160 171 179 187 193 195 196 201 204 201 200 200 200 199 200 200 200 201 202 204 207 209 211 214 214 215 218 218 214 209 205 203 201 199 200 200 201 202 201 201 203 205 205 205 208 210 212 211 209 205 203 204 205 204 200 196
245 240 242 255 304 58 81 102 94 89 99 107 107 98 73 45 38 36 38 45 52 54 54 52 51 53 59 66 77 88 106 132 161 180 189 194 196 197 200 203 203 203 201 200 199 199 200 202 200 198 202 207 208 210 214 215 217 219 218 213 208 205 202 200 200 200 200 203 204 203 202 204 206 205 206 208 211 214 215 215 213 210 209 209 206 202 198
181 177 177 163 131 102 145 137 116 109 110 110 114 118 115 101 75 49 38 37 39 43 46 45 43 44 47 53 61 67 77 92 120 159 183 193 198 200 200 201 204 205 205 203 199 194 199 205 201 196 198 201 203 208 213 215 218 219 216 211 207 205 203 201 201 201 202 204 205 204 204 204 204 204 206 209 213 215 216 218 218 217 216 216 210 203 199
310 294 216 164 110 91 143 146 132 127 124 116 114 114 113 112 106 85 66 49 39 41 43 42 43 45 46 49 54 59 64 72 85 114 161 188 198 201 200 201 203 205 205 205 197 188 192 202 202 200 200 197 197 203 208 212 217 218 215 212 208 204 203 202 203 203 204 204 203 203 204 204 203 202 203 206 210 214 217 219 217 215 216 215 209 203 202
322 321 233 167 122 115 139 142 134 132 130 122 116 109 105 108 107 102 95 75 52 48 44 39 40 43 47 52 57 61 68 72 79 99 135 169 189 198 199 200 202 202 200 199 197 194 195 199 202 204 204 200 197 200 205 211 216 215 214 213 210 205 203 203 204 206 206 205 202 201 202 203 203 203 203 203 205 207 209 211 212 212 212 208 202 200 202
288 353 128 139 127 126 132 132 130 131 128 122 120 115 108 107 104 100 99 86 69 56 40 32 29 30 36 45 49 55 66 73 78 92 115 145 169 185 193 195 199 201 199 198 198 198 198 200 201 204 204 203 201 202 205 211 215 213 212 212 210 207 205 203 203 206 206 204 203 202 201 201 202 203 204 205 204 203 202 202 204 205 204 202 200 199 199
233 137 130 128 123 125 128 124 123 125 121 118 122 119 112 107 100 94 93 86 78 68 45 29 20 15 19 29 38 46 55 64 74 85 94 114 144 167 184 191 195 199 200 201 202 201 200 201 202 203 204 204 205 206 207 210 211 210 210 209 209 210 209 205 203 204 205 205 205 204 202 201 201 203 205 206 206 204 201 199 199 199 198 199 200 200 200
161 139 131 126 123 125 126 124 125 124 119 117 119 117 112 108 100 94 90 79 73 66 47 30 20 14 14 21 31 42 52 59 71 84 92 103 131 158 179 190 195 198 200 201 202 200 199 199 200 202 204 205 207 207 208 208 209 208 207 207 208 210 211 208 205 205 205 205 206 204 201 200 201 203 204 205 206 206 205 202 201 199 199 199 201 200 201
142 130 106 131 152 144 134 129 128 124 118 114 113 106 101 101 101 107 107 94 95 80 44 22 21 25 26 31 39 49 60 65 71 84 97 113 134 153 170 184 191 194 196 198 198 196 196 197 198 201 202 203 204 206 207 208 209 207 206 206 207 208 209 209 208 208 208 207 206 204 202 201 202 203 205 205 206 207 208 209 207 203 201 201 201 200 202
156 156 321 173 157 152 141 133 131 124 114 109 104 97 96 99 97 95 91 91 106 100 66 41 333 30 44 51 57 64 69 72 77 84 97 117 134 146 160 173 181 188 194 196 195 194 193 194 196 197 197 198 200 202 205 207 208 208 206 205 205 205 206 206 207 208 208 208 207 205 202 202 204 205 206 208 209 209 210 211 209 205 202 201 201 201 204
190 217 235 151 146 151 143 135 135 126 111 106 100 90 83 79 78 78 78 80 95 117 110 99 122 154 101 73 77 82 82 81 85 91 97 111 130 145 159 169 177 186 192 194 193 193 191 192 194 195 194 194 196 199 202 205 207 209 208 207 206 205 205 204 203 203 204 206 208 206 203 204 206 208 209 211 212 212 213 213 209 205 203 202 203 204 206
195 211 212 157 144 145 140 137 139 130 114 106 98 84 71 66 65 65 65 71 91 129 137 128 127 140 142 124 114 115 108 96 94 98 102 112 130 146 160 170 175 180 182 183 185 187 189 192 196 196 194 194 196 198 200 203 207 209 210 209 209 208 207 206 204 203 203 204 205 204 205 207 209 210 212 214 215 215 217 215 210 206 204 204 205 206 208
207 196 184 159 148 144 142 142 143 137 126 117 105 90 72 62 58 51 44 52 99 151 162 151 138 139 147 148 149 150 144 135 128 119 113 119 133 145 163 179 186 189 189 186 186 188 191 195 196 195 194 198 202 203 204 207 209 211 211 211 210 208 205 204 205 206 207 206 205 205 207 210 212 213 215 217 218 218 219 218 213 208 207 207 208 208 209
204 180 167 171 168 159 156 160 162 156 145 135 123 104 78 65 57 44 33 29 54 183 182 170 153 146 147 146 149 154 155 153 156 153 147 146 151 156 167 180 191 200 202 200 200 201 202 200 199 197 196 199 205 209 211 213 216 217 216 216 213 209 205 204 205 207 208 208 206 206 208 211 213 214 215 217 218 218 219 217 213 210 210 212 211 211 212
202 187 165 176 174 163 162 167 175 180 176 165 152 129 91 74 62 42 27 16 347 223 189 174 162 153 146 140 136 138 140 140 147 155 161 164 166 168 172 179 191 201 203 203 208 212 208 201 201 204 204 206 212 217 218 218 220 222 222 222 221 215 209 207 208 208 208 206 205 207 210 213 215 216 216 217 217 216 216 214 210 208 210 212 212 211 212
206 213 115 150 152 143 142 144 153 179 193 188 174 154 116 85 66 46 29 13 356 165 159 156 152 147 141 135 129 125 123 122 125 134 146 157 164 168 171 176 186 196 200 202 206 211 209 204 203 206 209 214 218 220 221 223 226 228 229 231 230 224 218 215 215 213 209 207 207 209 212 215 216 218 219 220 220 220 220 219 214 211 210 210 210 210 211
193 145 119 145 152 150 142 126 117 150 192 195 182 163 132 103 79 58 40 30 72 122 128 129 130 127 122 117 114 109 106 105 103 102 108 122 139 155 166 174 182 191 198 200 201 205 209 210 207 205 209 216 220 221 224 228 232 236 239 240 238 232 225 222 222 220 215 211 210 213 214 215 217 219 219 220 221 223 224 223 219 215 212 210 209 210 212
113 109 119 131 138 146 144 124 103 107 189 190 181 167 140 118 92 71 72 98 123 125 119 113 111 110 105 101 98 93 92 92 89 87 89 91 98 120 145 167 180 193 202 202 199 203 207 209 209 209 211 217 222 226 229 231 231 232 234 237 237 232 225 220 221 222 219 214 211 211 212 214 216 217 218 218 219 221 223 223 220 216 212 209 209 212 215
104 105 104 103 105 114 127 124 108 115 179 178 176 166 142 126 106 100 117 130 131 124 115 108 102 94 83 74 62 47 40 37 30 31 34 16 359 272 226 202 187 195 205 204 202 206 211 211 214 217 217 219 223 227 231 234 233 231 231 233 234 231 225 221 219 220 219 215 211 209 210 212 213 216 217 217 218 220 221 221 219 214 211 210 211 215 217
97 93 87 89 95 99 110 121 123 131 144 152 162 160 141 127 120 133 142 143 136 124 114 105 91 71 50 32 12 358 349 338 324 305 286 273 261 251 248 239 221 209 206 200 196 198 202 204 208 212 214 216 220 225 230 233 231 229 231 233 231 228 225 221 219 219 219 217 213 210 209 210 213 215 215 214 217 221 222 218 214 212 210 211 214 218 219
92 91 95 102 102 97 99 103 104 110 116 118 125 141 139 129 141 154 153 147 136 125 112 93 68 42 22 7 353 344 339 332 313 286 264 252 242 234 233 232 227 219 209 200 195 192 188 186 189 191 189 192 201 211 220 224 223 223 226 229 230 228 225 220 218 216 215 216 217 215 211 210 213 214 212 211 216 221 221 215 212 210 209 212 218 222 221
111 112 111 108 101 96 96 93 87 90 101 108 115 123 120 118 133 145 146 138 131 124 104 71 42 20 358 338 332 355 21 37 38 219 218 218 219 216 213 214 216 213 205 197 192 187 179 173 174 177 180 184 189 195 203 211 218 221 222 224 228 228 225 223 221 215 210 211 216 215 212 214 220 220 215 212 215 219 220 216 212 209 210 217 225 227 226
129 125 118 111 106 103 99 93 92 100 106 104 104 103 102 106 119 132 134 127 119 107 88 60 38 22 4 286 176 159 145 116 100 125 184 198 202 204 202 200 200 197 191 187 184 179 172 168 170 175 179 182 184 185 191 201 210 215 216 218 222 223 222 224 225 218 212 213 216 213 213 220 229 228 222 217 215 216 218 217 214 213 218 225 230 229 228
136 134 125 116 113 107 96 90 103 117 113 99 93 94 98 101 107 119 125 119 100 75 57 51 56 62 57 42 49 212 229 234 218 184 178 185 180 177 185 189 188 183 178 175 174 173 171 171 173 178 179 177 175 177 185 194 202 208 211 214 217 219 221 223 223 221 221 221 218 213 215 224 234 236 230 223 216 213 216 218 218 219 224 226 226 227 231
143 146 140 130 122 112 98 92 111 123 116 100 87 89 105 113 113 120 127 118 75 29 26 106 109 98 67 33 25 21 271 245 223 198 184 183 190 193 191 189 187 182 177 172 171 172 174 176 180 182 180 174 172 176 181 187 191 198 203 208 213 217 221 221 220 220 222 222 219 217 219 226 237 242 234 221 213 214 219 221 220 221 223 223 225 230 235
145 152 154 148 135 118 105 107 122 129 125 111 94 87 89 101 125 150 158 148 97 63 76 113 130 128 101 70 63 61 62 101 158 170 170 173 187 199 196 188 187 187 184 180 178 178 179 180 182 183 181 178 177 179 181 183 186 190 195 202 208 214 218 220 219 218 219 220 220 220 222 228 238 239 224 214 215 223 225 221 217 217 220 223 226 230 233
150 149 155 162 159 146 134 134 141 145 147 139 121 101 82 71 91 156 174 168 125 78 69 91 110 104 76 56 54 51 48 73 151 160 161 164 167 169 166 167 174 182 187 188 186 185 185 184 183 183 182 182 182 183 183 183 184 187 191 197 203 208 214 218 219 219 221 222 222 223 225 230 233 224 213 213 221 223 216 210 212 216 219 221 224 227 231
173 166 163 168 171 169 167 175 190 196 190 177 160 133 97 75 76 121 167 174 161 115 78 83 88 79 53 16 26 35 34 44 159 164 161 149 137 137 146 151 155 164 175 182 186 187 188 188 187 185 184 184 185 185 185 185 184 186 190 195 201 207 213 217 221 225 226 225 225 226 229 232 230 219 213 215 219 215 209 211 218 219 219 224 229 230 232
188 186 188 189 188 189 194 201 210 221 219 199 180 163 138 110 96 103 129 153 162 151 135 123 81 77 99 111 92 61 54 67 97 134 155 148 129 124 133 145 153 161 170 176 179 183 186 188 189 189 188 188 187 185 183 183 184 184 187 191 196 203 209 215 223 228 227 226 227 228 230 234 235 226 217 214 217 217 217 221 223 222 223 228 232 232 235
144 161 185 196 194 192 198 201 204 211 209 188 175 167 161 157 149 127 126 151 172 172 167 172 152 72 78 84 77 64 66 77 83 90 104 120 122 119 126 137 147 158 167 172 176 182 186 188 191 193 193 192 189 186 183 183 184 186 188 191 195 199 204 212 221 227 228 229 232 232 234 240 241 229 216 212 218 223 224 225 227 228 229 231 233 235 239
113 112 112 120 133 138 146 162 167 166 182 187 183 181 186 197 203 201 184 179 182 185 186 188 193 198 182 34 27 40 74 97 92 83 83 86 88 94 115 138 147 154 162 169 175 181 186 189 194 200 202 202 199 197 194 192 191 193 196 199 201 205 210 217 224 230 233 235 236 237 238 237 228 215 207 210 220 226 228 231 234 233 233 236 238 240 243
95 92 88 86 87 87 85 87 91 91 102 166 185 190 200 216 231 240 244 243 245 250 233 201 212 227 222 223 240 285 103 125 120 102 92 88 84 83 93 117 142 155 162 167 172 179 184 185 188 197 206 210 211 211 210 208 206 205 206 207 208 212 217 222 228 233 235 235 235 233 227 217 206 200 203 211 220 223 227 233 235 234 237 241 243 244 247
80 80 82 85 87 85 82 80 80 78 78 87 126 185 211 230 243 250 254 257 261 265 266 269 281 277 216 207 219 228 219 186 168 167 160 139 106 92 89 92 113 144 156 160 168 181 189 191 193 201 208 213 216 220 223 222 220 217 215 213 212 213 216 222 227 230 228 225 221 215 206 200 198 202 210 217 219 220 225 229 232 235 239 242 245 251 256